Showing default

HAWK-13A, 67392

Orbit data source: Space-Track

HAWK-13A, 67392 is a payload satellite owned by HawkEye 360 (US) in SSO that was launched on Sun, 11 Jan 2026 UTC via an FALCON 9 launch vehicle from the Air Force Western Test Range (AFWTR). Payload-class satellites include a variety of spacecraft equipped with specific instruments for various scientific and technological missions. These include communications satellites like Starlink; space stations such as the ISS; scientific satellites like the Hubble; Earth observation satellites from companies like Planet Labs, Umbra, and HawkEye 360; GPS; miniature CubeSats for education and research; and military/defense satellites.

Loading next visibility...
Identifier
67392, 2026-004AF
Orbit
SSO
Country
Flag of USUS
Related business
Manufacturer
UTIAS-SFL
Mission
Operational Commercial Sigint
Bus & Motor
HAWK2G, Unknown motor
Mass
31 kg wet, 30 kg dry
Launch date (UTC)
2026-01-11 (4 months ago)
Launch vehicle
FALCON 9
Launch site
Air Force Western Test Range (AFWTR)
Object type
Payload
Rocket body
Debris
Shape & HBR
Box + 2 Pan, 1.0 m
Radar Cross Section
0.240 m²

Expand to show TLE details & history
Last TLE update: 12 hours ago

TLE from 12 hours ago
0 HAWK-13A
1 67392U 26004AF  26146.25892626  .00004912  00000-0  23832-3 0  9995
2 67392  97.4437 145.4502 0007100  59.6461 300.5475 15.18928677 20430
Epoch: 2026-05-26T06:12Z
TLE epoch observation values (Epoch: 2026-05-26T06:12:51.228Z)
Latitude
-0.00002°
Longitude
168.40181°
Altitude
509.682 km
Speed
7.61 km/s
True Right ascension
09h 41m 48s
True Declination
0° 00' 00"
Sunlit
Object was in daylight at epoch
Visualization orbit readout
Latitude
Unknown
Longitude
Unknown
Altitude
Unknown
Speed
Unknown
Apparent Right ascension
Unknown
Apparent Declination
Unknown
Sunlit
N/A
Visualization observer readout
Local Sidereal Time
03:36:20
Azimuth
Unknown
Elevation
Unknown
Doppler factor
Unknown
Orbital elements
Apogee altitude
510.934 km
Perigee altitude
501.158 km
Semi-major axis
6,884.183 km
Eccentricity
0.00071
Inclination
97.4437°
RAAN
145.4502°
Arg. of periapsis
59.6461°
True anomaly
300.4774°
Mean anomaly
300.5475°
Eccentric anomaly
300.51245°
Mean motion
3.79983 °/min
Orbital period
94.74 mins
BSTAR
0.00023832
Loading maneuver chart data...
Computing Atmospheric mass density...
Loading historical data...
Loading historical data...
Loading historical data...
Loading historical data...
Loading historical data...
Loading historical data...
Loading historical data...

Documentation

Showing up to 5 results
|